Wetbulb
70.08 69.55 68.42 67.52 67.52 67.29 66.42 66.38 66.07 65.74 64.97 65.86 65.67 66.32 67.10 67.99 68.11 67.97 67.50 67.77 68.56 69.19
68.08 67.66 66.44 65.29 64.38 63.65 63.28 64.70 63.39 63.15 62.45 62.83 63.44 63.68 63.72 63.78 64.74 64.43 64.96 66.28 66.64 67.45
63.96 62.36 61.71 61.29 61.17 61.12 60.92 61.48 61.61 61.91 62.07 62.04 61.72 61.91 61.61 61.30 62.42 62.53 62.85 64.36 62.73 62.86
60.09 60.54 60.36 60.50 60.51 60.57 60.35 60.46 60.69 61.09 61.18 61.20 61.35 61.44 60.23 60.31 60.19 59.65 59.49 60.11 60.33 60.01
60.60 60.63 60.29 60.09 60.14 60.15 60.15 60.93 60.85 61.01 60.59 61.05 59.79 59.45 58.87 58.45 58.69 58.38 58.04 58.82 58.96 59.31
59.49 59.59 59.07 58.61 58.52 59.18 59.44 60.00 60.76 60.79 60.23 59.13 59.05 58.93 58.59 57.94 57.48 57.58 57.68 57.96 58.61 59.58
58.82 58.34 57.87 57.69 57.99 57.85 58.45 58.37 58.30 59.40 59.54 59.62 58.52 58.24 58.13 57.23 56.24 56.38 57.68 58.58 59.42 60.05
58.40 57.68 56.94 56.57 56.55 57.12 57.88 58.45 58.15 58.00 57.98 58.40 59.60 60.23 58.21 57.02 56.54 56.54 57.66 58.80 60.34 62.13
57.84 57.04 56.36 55.66 55.72 56.29 56.82 57.37 57.93 58.10 57.85 58.57 61.23 61.30 61.56 60.05 56.02 56.56 56.50 57.22 59.63 61.26
57.08 56.64 56.22 55.35 55.07 55.05 55.76 56.56 58.27 59.96 61.14 60.48 58.37 60.25 59.98 60.73 55.03 54.55 54.43 56.58 60.46 59.94
57.28 56.38 55.77 54.15 54.28 54.82 54.85 55.17 55.71 57.18 58.70 57.97 58.52 59.46 58.10 58.52 53.76 53.08 53.43 55.15 59.69 58.36
56.52 55.77 55.05 54.68 54.28 54.48 54.46 53.73 54.13 55.53 56.22 57.32 57.88 58.12 56.24 53.85 52.02 51.61 51.72 54.27 56.68 56.88
56.58 55.85 54.91 54.40 54.22 54.99 53.67 54.44 55.38 55.37 55.65 57.67 57.22 55.45 54.07 52.44 50.57 49.55 50.74 53.09 54.83 57.72
55.90 55.41 55.39 55.07 55.09 54.22 53.31 53.78 53.69 53.43 53.41 54.54 53.82 51.94 52.19 52.19 47.85 48.87 49.78 52.50 52.73 53.39
MSLP
1014.74 1014.83 1015.23 1015.47 1015.75 1015.85 1015.84 1015.66 1015.54 1015.43 1015.25 1015.17 1015.13 1015.03 1015.04 1015.03 1015.01 1015.02 1015.09 1014.99 1014.84 1014.59
1015.10 1015.31 1015.56 1015.90 1016.10 1016.21 1016.16 1016.15 1015.98 1015.81 1015.78 1015.74 1015.65 1015.66 1015.62 1015.54 1015.50 1015.47 1015.28 1015.08 1014.90 1014.75
1015.59 1015.75 1015.96 1016.27 1016.56 1016.56 1016.57 1016.48 1016.25 1016.12 1016.01 1015.97 1015.96 1015.93 1015.88 1015.88 1015.87 1015.75 1015.62 1015.42 1015.30 1015.15
1016.09 1016.30 1016.55 1016.66 1016.65 1016.73 1016.72 1016.71 1016.56 1016.41 1016.31 1016.31 1016.30 1016.26 1016.21 1016.21 1016.07 1015.94 1015.84 1015.72 1015.61 1015.33
1016.50 1016.80 1017.02 1017.14 1016.99 1016.85 1016.75 1016.70 1016.53 1016.45 1016.39 1016.52 1016.61 1016.57 1016.47 1016.43 1016.26 1016.11 1015.98 1015.84 1015.70 1015.48
1017.00 1017.17 1017.35 1017.47 1017.44 1017.22 1017.11 1017.07 1016.86 1016.67 1016.71 1016.82 1016.80 1016.66 1016.50 1016.39 1016.32 1016.18 1016.00 1015.90 1015.71 1015.44
1017.32 1017.43 1017.59 1017.77 1017.78 1017.69 1017.57 1017.40 1017.27 1017.05 1016.98 1016.92 1016.87 1016.74 1016.64 1016.50 1016.32 1016.34 1016.11 1015.83 1015.57 1015.33
1017.56 1017.73 1017.82 1017.87 1017.96 1017.96 1017.80 1017.59 1017.33 1017.12 1016.89 1016.75 1016.77 1016.79 1016.71 1016.53 1016.42 1016.32 1016.11 1015.80 1015.47 1015.25
1017.86 1017.98 1018.06 1017.99 1017.95 1018.01 1017.88 1017.53 1017.25 1017.07 1016.90 1016.66 1016.73 1016.80 1016.81 1016.64 1016.57 1016.41 1016.27 1015.99 1015.59 1015.26
1017.81 1018.16 1018.30 1018.26 1018.14 1017.95 1017.96 1017.77 1017.51 1017.18 1016.74 1016.66 1016.77 1016.87 1016.81 1016.60 1016.58 1016.58 1016.39 1016.05 1015.64 1015.38
1017.39 1017.74 1017.97 1018.25 1018.35 1018.22 1017.98 1017.80 1017.76 1017.53 1017.22 1017.05 1016.99 1016.94 1016.79 1016.57 1016.63 1016.61 1016.35 1016.13 1015.88 1015.65
1017.26 1017.59 1017.77 1017.90 1018.22 1018.15 1018.12 1018.00 1017.83 1017.77 1017.58 1017.33 1017.13 1017.16 1016.96 1016.78 1016.83 1016.75 1016.48 1016.17 1015.99 1015.82
1017.13 1017.55 1017.78 1017.83 1017.92 1018.03 1018.17 1018.32 1018.05 1017.79 1017.59 1017.25 1017.18 1017.20 1017.09 1017.04 1016.99 1016.94 1016.68 1016.28 1016.02 1015.81
1016.96 1017.08 1017.37 1017.61 1017.78 1017.93 1018.18 1018.20 1018.20 1017.92 1017.54 1017.32 1017.26 1017.33 1017.36 1017.28 1017.19 1017.17 1017.03 1016.68 1016.31 1015.99
Wind_Speed
5 3 4 4 4 3 2 3 4 5 5 6 6 5 5 3 4 5 4 4 3 2
5 6 5 6 4 3 2 1 3 4 5 5 5 5 5 4 4 4 4 4 4 2
5 6 6 5 4 4 2 3 4 4 4 5 5 5 4 4 4 5 4 3 5 4
6 6 5 4 3 3 2 2 3 2 3 4 5 5 5 5 5 5 5 4 5 5
6 5 5 4 3 3 4 4 4 4 3 5 5 5 5 5 5 5 5 5 5 5
5 5 4 3 2 3 3 4 5 4 5 4 4 4 4 4 5 5 5 5 5 5
5 4 3 1 2 2 2 2 3 3 3 3 1 2 4 5 5 5 4 5 5 5
5 4 3 1 2 2 1 1 1 0 0 1 0 3 5 5 5 5 5 5 5 4
5 4 3 1 1 3 4 4 3 4 4 4 2 5 8 7 4 5 5 5 5 4
6 4 4 2 2 3 4 4 4 5 5 3 2 3 7 9 4 4 5 5 4 5
6 6 4 2 3 4 2 3 3 5 5 2 2 3 7 8 5 5 5 5 5 5
5 5 3 2 3 3 2 3 3 3 5 4 5 1 5 4 4 5 5 5 5 4
5 5 4 3 3 2 1 3 4 5 5 7 4 3 5 4 3 5 4 5 5 7
6 6 5 3 2 2 2 3 4 5 4 2 3 2 4 6 2 3 4 4 4 4
Wind_Direction
118 108 108 108 104 107 88 61 353 5 20 25 24 14 17 28 14 14 8 5 10 315
106 104 104 96 84 79 63 52 30 17 16 13 23 28 17 23 20 6 360 1 3 355
112 102 98 95 93 83 38 13 17 12 13 8 19 19 29 27 16 32 12 13 14 2
97 92 92 102 86 54 36 1 2 354 7 20 37 40 46 26 27 22 3 356 355 333
103 103 92 67 58 43 17 345 339 355 31 83 69 53 43 24 9 9 355 342 342 323
111 110 103 86 34 29 25 14 25 29 92 81 58 43 24 16 356 347 339 326 316 305
139 131 120 83 32 19 3 33 45 51 107 139 80 18 22 6 3 349 332 314 300 298
145 135 122 78 342 318 297 288 293 165 190 178 322 25 9 6 3 355 349 344 347 19
147 147 162 190 294 322 312 283 294 287 264 243 95 18 14 21 8 2 5 355 352 2
153 163 192 240 278 294 308 325 334 335 309 95 94 36 10 15 14 11 358 354 348 11
163 170 187 239 289 304 280 311 319 330 358 3 304 2 6 10 5 4 355 355 349 0
173 181 183 218 270 282 290 314 302 304 309 281 276 258 8 23 357 347 346 341 356 8
172 186 197 213 233 251 283 293 302 300 261 255 246 157 41 30 355 340 344 333 352 359
187 183 195 209 205 228 285 306 329 350 356 12 140 145 44 13 347 301 318 322 327 322